Temp
20 20 20 20 19 20 20 20 20 20 19 19 19 18 18 18 17 17 16 16 16 16 15 16 16 16 16 16 16 16 16 15 15 14 14 14 14 14 14 14 14 15 15
21 21 20 20 20 20 20 20 20 20 19 19 19 18 18 18 17 16 16 15 15 15 15 15 16 15 16 16 16 16 16 16 14 13 13 14 14 14 15 15 15 14 14
22 21 21 20 20 20 20 20 20 19 19 19 18 18 17 16 15 15 15 15 15 15 15 15 15 15 15 15 15 15 15 14 14 12 13 13 13 13 13 13 13 13 12
22 21 21 21 20 20 20 20 19 19 19 18 18 17 16 15 15 15 15 15 15 14 14 14 13 13 13 13 13 13 13 13 13 13 13 13 13 12 13 13 13 13 12
22 21 21 21 21 20 20 20 19 19 18 18 18 17 16 16 15 15 15 14 14 13 13 13 13 12 12 12 12 12 12 12 12 12 12 12 12 12 12 12 12 12 12
22 22 22 22 22 21 19 19 19 19 18 18 17 17 16 15 15 14 14 14 13 13 13 12 12 12 12 12 12 12 12 11 11 11 11 11 11 11 11 11 11 12 11
23 22 22 22 22 20 19 19 19 18 18 17 17 16 16 15 15 15 14 13 13 13 12 12 12 11 11 11 11 11 11 11 11 11 11 11 11 11 11 11 11 11 11
23 22 21 20 19 19 19 19 18 17 17 17 16 15 15 14 14 14 14 14 13 12 11 11 11 11 11 11 11 11 11 11 11 11 11 11 10 10 10 10 10 10 10
23 22 21 20 19 19 19 19 17 17 17 16 16 14 13 13 13 14 14 13 12 11 11 11 11 11 11 11 11 11 11 10 10 10 10 10 10 10 10 10 10 10 10
23 22 21 20 19 20 19 18 17 17 16 16 15 13 12 13 12 12 12 12 12 11 11 11 11 11 11 11 11 10 10 10 10 10 10 9 9 9 9 9 9 9 9
22 21 20 19 20 19 18 18 17 16 16 15 14 13 12 12 12 12 12 12 11 11 11 11 11 11 11 10 10 10 10 10 9 9 9 9 9 9 8 8 8 8 8
22 21 20 20 20 19 18 17 16 16 15 15 14 14 12 12 12 12 12 11 11 11 11 11 11 11 10 10 10 10 9 9 9 9 9 9 9 8 8 7 8 8 7
21 21 21 20 19 18 17 16 16 16 16 16 15 14 13 12 12 12 11 11 11 12 11 11 11 10 10 10 10 9 9 9 9 9 9 8 8 8 8 8 8 7 6
21 21 21 20 18 17 16 16 17 17 16 16 16 15 14 13 12 12 11 11 12 12 11 11 11 10 10 9 9 9 8 8 8 8 8 7 7 7 7 7 6 6 6
21 21 20 19 19 18 17 17 17 17 17 17 16 15 15 14 13 12 11 11 11 11 11 11 11 10 10 9 9 9 8 8 8 7 7 7 7 7 6 6 6 6 6
22 21 21 20 20 18 18 17 17 16 15 15 14 14 14 13 13 12 12 11 11 11 11 11 11 10 10 10 9 9 8 8 7 7 7 7 7 6 6 6 5 5 5
23 23 22 21 20 19 18 17 17 15 14 14 14 13 13 13 13 12 12 11 11 12 12 11 11 10 10 10 9 9 8 8 7 7 7 7 7 6 6 6 5 5 5
23 23 23 22 21 20 19 18 17 17 16 16 15 14 13 12 12 12 12 11 11 12 12 12 11 11 10 10 9 9 8 8 7 7 7 7 7 7 6 6 5 5 4
23 23 22 21 21 20 20 18 18 17 16 16 15 14 14 12 12 12 12 12 12 12 12 12 11 11 10 10 9 9 8 8 7 7 7 7 7 6 6 6 5 4 4
23 22 22 22 21 20 20 19 18 18 17 16 15 15 15 14 14 14 14 13 12 12 12 12 12 11 11 10 9 9 8 8 7 7 7 7 7 6 6 6 5 4 4
23 22 21 21 21 21 20 19 19 18 17 16 16 15 16 16 16 16 15 15 14 13 13 12 12 11 11 10 10 9 8 8 7 7 7 7 6 6 6 5 4 4 4
24 23 22 21 21 20 20 20 20 19 17 17 16 16 16 15 15 15 15 14 14 13 13 12 12 11 11 10 10 9 8 8 7 7 7 7 6 6 6 5 4 4 4
23 24 23 23 22 21 20 20 20 19 18 17 17 16 16 15 16 15 15 14 14 13 13 12 12 12 11 11 10 9 8 8 7 7 7 7 6 6 6 5 4 4 4
24 24 24 23 22 22 21 20 20 19 18 17 17 16 16 16 16 15 15 15 14 14 13 13 12 12 12 11 10 9 9 8 8 7 7 7 7 6 6 5 4 4 3
19 21 23 23 23 22 21 20 19 20 19 18 17 17 17 16 16 16 15 15 15 14 14 13 13 12 12 11 11 9 9 8 8 8 7 7 7 7 6 5 5 4 3
21 22 22 21 22 22 21 20 20 21 21 19 18 17 17 17 17 17 16 15 15 13 13 13 13 13 12 11 11 10 9 9 8 8 8 7 7 6 6 5 5 4 4
Height
1558 1560 1563 1567 1568 1571 1572 1570 1569 1569 1568 1568 1567 1567 1567 1567 1566 1565 1565 1565 1564 1563 1563 1562 1562 1562 1562 1561 1559 1558 1558 1558 1558 1557 1557 1556 1555 1553 1552 1550 1548 1546 1544
1557 1559 1561 1564 1566 1566 1568 1569 1569 1569 1568 1567 1566 1566 1566 1565 1565 1565 1565 1564 1564 1563 1563 1563 1563 1563 1562 1561 1560 1558 1558 1556 1556 1557 1557 1557 1555 1553 1551 1548 1546 1545 1544
1555 1557 1560 1563 1564 1565 1567 1568 1569 1569 1568 1566 1565 1565 1565 1566 1566 1566 1565 1565 1564 1564 1565 1565 1565 1565 1563 1562 1560 1559 1558 1557 1556 1555 1555 1555 1553 1552 1551 1549 1546 1544 1542
1553 1556 1560 1560 1562 1564 1566 1567 1567 1566 1566 1566 1565 1565 1565 1567 1567 1568 1568 1567 1566 1566 1567 1567 1567 1566 1566 1565 1564 1562 1561 1559 1558 1557 1556 1555 1554 1553 1551 1549 1547 1545 1543
1552 1554 1556 1559 1561 1563 1564 1566 1566 1566 1566 1566 1567 1567 1568 1569 1570 1570 1570 1568 1568 1568 1568 1568 1568 1569 1568 1568 1568 1566 1565 1563 1561 1561 1559 1558 1557 1554 1552 1551 1550 1547 1545
1549 1552 1555 1558 1560 1561 1563 1565 1565 1566 1566 1568 1568 1569 1570 1570 1570 1570 1571 1571 1571 1571 1570 1570 1570 1571 1571 1570 1569 1569 1569 1568 1567 1566 1563 1561 1559 1558 1556 1553 1551 1548 1546
1546 1550 1553 1555 1557 1560 1562 1563 1565 1566 1567 1569 1570 1571 1572 1572 1572 1572 1572 1573 1573 1573 1573 1573 1572 1572 1573 1574 1573 1571 1570 1569 1568 1567 1565 1564 1562 1560 1558 1556 1554 1551 1549
1544 1548 1550 1553 1556 1558 1560 1563 1565 1567 1569 1570 1571 1572 1573 1573 1573 1573 1573 1574 1575 1575 1576 1577 1576 1577 1577 1576 1575 1574 1573 1571 1570 1569 1567 1565 1563 1560 1559 1557 1555 1554 1551
1541 1545 1547 1551 1554 1557 1560 1562 1565 1567 1569 1571 1572 1574 1575 1575 1576 1576 1576 1576 1577 1579 1580 1581 1581 1580 1579 1578 1578 1576 1575 1572 1570 1569 1568 1566 1564 1561 1560 1559 1555 1552 1550
1538 1542 1546 1550 1553 1556 1560 1562 1565 1567 1569 1571 1573 1574 1576 1577 1578 1579 1579 1580 1581 1582 1582 1584 1584 1583 1582 1580 1578 1578 1576 1573 1571 1570 1569 1566 1564 1561 1558 1557 1554 1551 1547
1536 1541 1545 1549 1552 1556 1559 1562 1564 1567 1569 1571 1574 1576 1578 1579 1580 1581 1582 1582 1583 1583 1585 1585 1585 1584 1583 1581 1579 1576 1574 1573 1572 1570 1568 1566 1563 1560 1556 1554 1552 1550 1546
1535 1539 1543 1547 1551 1555 1558 1561 1564 1566 1569 1572 1574 1576 1577 1579 1580 1581 1583 1584 1584 1585 1586 1586 1585 1585 1583 1581 1579 1577 1575 1574 1572 1570 1568 1565 1561 1559 1557 1555 1552 1548 1545
1533 1537 1541 1545 1550 1554 1557 1560 1563 1566 1569 1572 1573 1575 1576 1578 1580 1582 1584 1586 1587 1587 1587 1587 1587 1586 1585 1583 1580 1578 1576 1574 1572 1570 1567 1564 1561 1558 1555 1553 1550 1547 1544
1530 1534 1538 1542 1547 1552 1556 1560 1563 1566 1569 1571 1572 1574 1576 1578 1580 1582 1584 1586 1587 1588 1590 1590 1589 1588 1586 1584 1582 1579 1577 1575 1572 1569 1566 1564 1561 1558 1555 1551 1548 1546 1543
1527 1531 1535 1540 1545 1549 1554 1559 1562 1565 1568 1570 1572 1574 1576 1578 1580 1582 1584 1586 1587 1588 1589 1588 1587 1586 1585 1584 1581 1579 1576 1574 1573 1570 1568 1565 1562 1558 1555 1553 1550 1546 1543
1521 1526 1530 1536 1541 1546 1551 1555 1559 1563 1566 1569 1572 1574 1575 1577 1578 1580 1581 1584 1585 1585 1586 1586 1586 1584 1583 1582 1582 1580 1578 1576 1572 1569 1566 1565 1562 1558 1555 1551 1548 1545 1543
1514 1519 1525 1532 1536 1541 1547 1551 1556 1560 1564 1566 1568 1571 1573 1576 1577 1578 1578 1580 1582 1583 1583 1584 1584 1584 1584 1582 1581 1579 1577 1575 1572 1570 1566 1563 1561 1558 1553 1550 1547 1545 1543
1511 1515 1519 1525 1530 1536 1542 1547 1552 1556 1558 1561 1565 1569 1571 1573 1575 1576 1577 1577 1578 1581 1583 1584 1583 1582 1582 1581 1579 1578 1576 1574 1572 1569 1566 1562 1559 1557 1551 1547 1544 1543 1541
1504 1509 1515 1522 1526 1531 1537 1542 1548 1552 1555 1559 1562 1565 1566 1568 1571 1573 1574 1576 1577 1577 1579 1581 1582 1582 1582 1580 1579 1577 1575 1572 1570 1567 1564 1562 1558 1555 1552 1548 1545 1543 1540
1501 1506 1512 1517 1521 1526 1530 1536 1541 1544 1549 1553 1556 1559 1561 1563 1563 1565 1568 1571 1573 1575 1576 1576 1578 1579 1579 1578 1577 1575 1574 1571 1568 1566 1562 1559 1556 1553 1550 1548 1545 1543 1541
1493 1499 1507 1513 1517 1521 1525 1529 1535 1540 1544 1548 1553 1556 1557 1557 1557 1558 1561 1563 1567 1569 1571 1573 1575 1576 1577 1576 1575 1573 1571 1568 1565 1562 1559 1558 1554 1551 1548 1545 1544 1542 1539
1484 1491 1498 1504 1510 1514 1518 1523 1528 1532 1537 1542 1546 1548 1550 1551 1553 1558 1561 1562 1565 1567 1569 1570 1571 1572 1573 1572 1571 1570 1569 1567 1565 1560 1557 1555 1552 1549 1547 1545 1543 1540 1538
1476 1483 1490 1494 1499 1506 1511 1515 1518 1523 1527 1534 1540 1542 1544 1548 1549 1551 1556 1558 1559 1561 1564 1566 1565 1565 1567 1569 1568 1567 1567 1564 1562 1559 1557 1554 1551 1549 1547 1545 1542 1538 1535
1465 1474 1477 1484 1490 1495 1500 1507 1510 1515 1521 1528 1535 1538 1541 1543 1545 1546 1549 1552 1555 1557 1558 1560 1561 1562 1563 1564 1565 1564 1563 1562 1560 1557 1555 1552 1551 1547 1545 1543 1540 1537 1532
1474 1472 1470 1475 1481 1487 1494 1499 1505 1510 1516 1522 1525 1529 1532 1535 1537 1539 1543 1544 1546 1549 1552 1555 1558 1559 1559 1560 1561 1561 1560 1558 1557 1555 1552 1551 1549 1548 1544 1541 1537 1533 1530
1467 1466 1465 1470 1474 1477 1483 1490 1497 1501 1507 1515 1519 1521 1522 1524 1526 1523 1527 1532 1535 1540 1547 1549 1550 1553 1555 1557 1558 1559 1557 1556 1554 1553 1551 1550 1548 1546 1543 1539 1535 1530 1526
Wind_Speed
13 13 12 11 12 10 8 7 9 10 9 9 9 8 5 4 3 3 4 5 6 4 4 6 5 5 5 6 7 6 6 5 3 3 9 9 9 9 9 10 10 12 14
13 13 12 11 10 9 9 9 10 9 9 9 9 7 4 4 3 3 3 3 3 4 7 7 9 9 8 9 10 10 8 5 2 1 4 6 7 9 10 10 11 14 15
13 13 12 11 11 9 8 8 10 10 8 7 5 3 3 3 4 4 6 8 8 8 8 8 10 9 11 12 12 12 13 12 11 9 6 4 4 4 6 9 10 10 13
13 14 15 13 11 9 10 10 9 8 5 3 1 3 5 6 7 8 7 7 7 9 10 11 12 12 14 14 15 16 15 13 12 11 10 9 9 11 10 10 11 10 9
14 13 14 13 11 11 11 10 9 4 2 3 4 5 6 6 6 6 7 9 9 10 10 10 11 12 12 12 12 13 12 11 11 11 13 12 13 15 19 17 14 11 9
16 14 14 11 10 9 9 8 6 6 7 6 7 7 7 7 8 7 7 7 8 8 9 9 10 10 12 13 13 13 15 16 18 18 18 17 17 17 16 17 19 19 17
20 18 17 12 10 10 10 8 8 9 8 8 7 7 7 7 7 7 7 7 6 8 9 10 12 13 12 12 12 12 14 14 14 14 14 14 14 15 14 16 16 16 15
21 20 17 14 13 12 10 10 11 11 10 8 8 8 7 10 10 9 8 7 8 12 13 13 14 14 13 10 6 8 10 10 12 12 13 13 12 12 14 15 15 14 15
20 18 18 16 13 13 13 14 13 11 10 9 9 9 9 11 10 10 10 11 12 13 11 10 10 11 12 12 9 9 10 11 11 12 12 12 12 12 13 14 14 15 16
19 18 17 15 14 14 15 15 13 12 10 10 10 11 10 8 10 10 10 11 12 11 8 8 10 10 10 10 11 11 11 12 12 10 8 7 7 10 13 14 15 16 16
20 18 18 16 15 16 16 15 14 13 12 11 11 11 11 9 9 9 9 8 6 6 5 6 7 8 9 10 13 12 13 13 12 10 9 8 9 11 12 14 15 15 14
21 20 18 19 20 20 18 17 15 13 12 11 11 12 15 13 10 11 9 7 6 4 3 5 5 5 8 12 12 11 11 10 10 10 10 11 12 13 13 14 14 15 15
24 22 22 23 23 21 20 17 14 13 11 11 11 13 15 15 13 13 10 7 4 3 1 1 3 5 10 11 10 9 9 9 10 12 13 14 15 16 16 15 13 11 10
25 26 26 26 25 23 20 16 13 13 13 12 12 13 13 13 13 13 10 8 5 3 1 1 4 7 10 11 9 8 7 8 10 12 12 13 15 16 15 14 14 15 14
27 29 29 28 26 25 21 17 14 13 10 8 9 8 9 9 8 8 7 7 5 5 2 1 3 6 9 8 9 9 7 8 10 11 13 15 17 15 13 12 14 13 13
31 32 32 31 29 27 24 21 19 17 15 13 10 7 7 6 7 8 10 11 8 9 6 3 4 4 8 5 8 10 8 8 10 12 14 17 17 14 14 14 12 12 13
34 34 34 33 31 30 27 25 24 24 21 19 17 15 11 7 8 11 12 14 12 11 10 6 3 3 7 5 6 10 10 9 11 12 16 18 15 13 14 14 15 15 13
36 34 34 34 33 30 28 26 25 26 25 24 22 19 18 16 12 13 15 16 15 13 11 10 6 5 4 6 6 9 12 9 11 12 18 16 14 16 15 14 14 14 15
39 38 36 35 33 31 29 27 25 26 24 21 21 22 23 22 18 17 19 19 16 14 13 12 10 6 6 6 7 8 12 9 10 12 17 16 15 15 16 15 14 12 14
40 39 35 35 34 33 31 29 29 29 27 25 24 23 23 25 24 21 19 19 20 16 14 14 12 9 9 8 7 9 13 11 10 13 16 15 14 15 15 14 13 14 14
42 41 37 36 35 34 33 32 30 30 29 28 24 22 22 22 21 19 20 18 19 18 15 14 14 12 10 9 9 10 12 11 10 12 14 14 13 14 13 13 13 14 16
43 41 39 38 37 37 36 33 32 32 32 30 27 25 26 25 24 23 21 19 17 18 17 16 14 14 11 10 11 12 13 11 11 12 13 12 13 14 13 13 14 16 17
43 40 40 41 41 39 38 36 34 35 34 32 30 29 31 29 25 25 24 23 20 20 21 22 19 14 13 13 13 13 12 11 11 12 12 12 12 14 14 14 16 17 19
40 39 42 43 44 44 42 40 37 37 36 32 32 33 32 32 29 26 24 25 26 24 23 23 24 22 17 15 15 13 11 10 11 10 10 10 11 12 14 15 17 19 20
43 43 40 41 45 45 43 41 38 36 38 34 34 33 34 32 30 30 27 28 30 29 27 22 24 24 19 15 16 13 10 8 6 6 7 9 10 12 14 16 18 19 19
45 35 32 39 43 43 45 42 39 37 38 37 36 34 34 33 29 28 28 28 29 30 31 28 24 22 19 14 17 14 9 4 1 3 6 8 10 12 15 17 19 20 20
Wind_Direction
214 214 220 220 237 246 253 290 309 296 303 306 314 322 329 343 1 350 328 329 339 18 360 1 353 356 349 347 342 328 311 301 304 339 341 346 358 354 345 343 338 335 333
212 215 223 226 237 252 266 281 300 297 295 304 312 315 344 351 348 342 333 330 27 45 65 63 60 52 48 53 51 51 46 40 76 350 353 359 352 346 342 335 330 337 329
216 217 218 228 235 246 265 279 291 285 290 302 310 346 24 60 60 55 73 88 88 81 77 74 72 63 63 59 58 61 60 62 63 86 85 50 358 334 346 344 340 353 359
218 221 219 228 242 259 266 279 282 289 296 301 33 69 81 75 67 78 84 90 96 98 93 85 79 72 68 64 68 70 71 74 78 81 81 70 50 39 25 25 25 16 18
220 218 220 232 245 247 256 265 277 266 191 136 118 121 115 111 106 92 88 94 94 95 90 83 79 73 70 71 69 73 71 72 69 67 64 57 46 37 33 25 20 14 13
219 218 219 231 249 247 243 247 229 182 163 142 128 119 110 106 92 93 91 92 93 89 84 80 79 85 87 88 83 71 63 62 58 56 59 55 49 42 32 29 27 28 30
219 221 227 239 237 234 234 215 183 170 159 143 131 123 122 104 97 101 99 99 100 98 90 82 85 96 97 89 83 68 61 57 49 42 33 30 29 24 21 19 17 22 16
218 222 228 218 213 220 213 188 178 168 159 152 144 136 129 108 96 97 104 111 115 108 104 95 86 82 72 64 75 54 46 46 35 23 13 9 7 5 4 2 1 2 358
213 217 219 213 217 211 196 184 180 174 167 165 157 148 133 113 96 90 96 110 114 112 104 89 79 69 67 59 54 38 35 30 16 2 357 354 353 353 348 342 347 350 350
213 214 212 212 214 200 188 185 179 177 181 177 171 157 148 134 110 100 105 106 110 110 99 82 76 60 51 36 23 15 5 10 8 5 357 346 348 353 351 353 350 348 347
206 207 210 209 198 191 184 183 185 188 188 186 178 169 163 156 136 137 131 122 124 122 88 80 73 52 34 17 6 6 15 14 10 4 359 0 3 3 8 5 1 357 351
202 207 206 197 189 186 187 186 187 191 190 190 183 179 176 176 169 161 162 166 159 150 97 75 58 34 10 3 2 12 16 14 13 14 13 14 13 9 2 349 340 335 331
202 206 197 191 186 187 188 189 189 187 192 194 188 187 185 187 185 184 189 183 181 197 124 86 24 13 356 358 2 5 7 12 16 14 19 17 10 1 351 344 350 8 10
204 199 193 189 185 187 188 195 201 196 187 191 186 185 185 188 190 195 198 203 200 186 157 33 2 354 348 350 358 356 1 9 7 11 21 14 3 355 355 3 9 8 13
202 197 192 189 190 190 192 196 197 193 191 188 180 181 183 190 193 196 211 205 191 186 224 322 330 349 342 349 4 356 357 358 1 6 4 359 357 359 1 1 2 8 7
199 197 196 191 194 196 196 193 188 190 185 178 178 175 172 172 200 217 218 205 200 204 222 272 311 328 352 352 4 6 355 349 356 357 355 350 348 354 356 355 352 353 353
203 199 197 196 199 198 198 200 195 193 193 196 197 198 195 208 212 209 200 200 207 213 216 226 287 309 350 344 343 2 357 346 347 351 350 345 346 346 348 350 350 347 345
205 206 202 199 203 202 204 203 203 206 204 207 208 212 213 219 220 219 209 207 214 221 225 238 263 291 336 353 347 348 350 343 338 339 346 346 345 342 343 344 343 339 339
207 207 206 204 206 205 205 205 207 211 215 218 219 220 219 218 223 221 221 225 224 231 237 237 250 275 285 331 340 329 342 338 335 336 340 342 342 343 343 342 340 335 331
211 212 208 206 209 207 208 208 209 212 214 218 220 221 223 215 217 219 220 224 228 229 226 223 237 255 272 292 324 320 331 329 335 335 337 338 338 344 346 347 346 340 338
213 211 211 211 213 213 213 211 213 217 220 221 221 224 227 228 220 211 215 213 222 217 214 225 238 250 270 288 315 314 320 322 325 330 334 333 340 345 344 343 340 334 328
216 214 211 213 215 217 218 216 217 221 224 224 222 221 221 224 224 222 224 224 223 224 228 239 246 249 265 275 294 302 309 316 322 328 331 332 339 343 337 335 333 330 326
216 215 215 216 218 220 221 219 219 224 227 227 225 223 222 225 224 222 228 233 232 234 234 240 244 247 251 267 279 291 299 306 317 329 333 337 343 342 337 333 330 330 330
214 216 216 219 221 220 222 222 221 226 230 230 229 230 227 229 231 235 238 241 240 241 241 242 248 254 253 256 270 280 290 302 322 332 341 351 348 351 346 338 331 329 330
229 222 220 222 225 226 225 223 224 230 233 230 229 229 229 230 234 243 248 251 250 245 245 247 251 252 242 247 267 276 282 300 323 350 10 13 9 3 358 351 341 335 334
225 233 234 232 231 230 230 228 226 228 233 232 233 230 229 230 232 232 238 249 257 255 248 249 253 245 232 246 270 273 267 260 285 31 24 7 360 356 355 354 350 345 341